Weather in Surkhet

Nepal     28°36′23″N   81°36′51″E
temp.,
°C
wind,
m/s
gust,
m/s
humid.,
%
clouds,
%
prec.,
mm/h
press.,
hPa
HPBL,
m
16 may, sun
sun1623:45+26ne223662 0.0 100722
02:45+25ne3241100 0.0 100635
05:45+24ne3242100 0.0 100734
08:45+33nne11255 0.0 1008589
11:45+37wsw3516100 0.0 10063203
14:45+38wsw451454 0.0 10043421
17:45+36w341622 0.0 10031848
20:45+29ne2224100 0.0 100518
17 may, mon
mon1723:45+28ne32277 0.0 100527
02:45+27ne322995 0.0 100438
05:45+26ne223028 0.0 100528
08:45+36nne111893 0.0 1006529
11:45+40wsw351194 0.0 10053418
14:45+40w561184 0.0 10023732
17:45+37wnw361498 0.0 10011094
20:45+32wsw2419100 0.0 1004148
18 may, tue
tue1823:45+31wsw1224100 0.0 100761
02:45+28ne3435100 0.0 1005165
05:45+25ne3447100 0.1 1005215
08:45+28ne2442100 0.0 1006384
11:45+28ese1243100 0.0 1007239
14:45+30nnw013697 0.0 1005742
17:45+28n2243100 0.0 1005132
20:45+25ne22511 0.0 100619
19 may, wed
wed1923:45+24ne22545 0.0 100625
02:45+24ne225576 0.0 100335
05:45+24ne225375 0.0 100326
08:45+32w223191 0.0 1004785
11:45+36wsw322333 0.0 10031879
14:45+37wsw432097 0.0 10002411
17:45+32sse1129100 0.0 100140
20:45+29ese0135100 0.0 100212
20 may, thu
thu2023:45+28nne113899 0.0 100211
02:45+28ene223986 0.0 100146
05:45+26ne214667 0.0 100217
08:45+34ne11295 0.1 1004753
11:45+38sw332423 0.3 10022162
14:45+38ssw442497 0.1 10012834
17:45+25nne467980 3.3 1003231
20:45+26ne347310 1.1 1003103